Date String (YYYY-MM-DD hh:mm:ss) UTC,Instrument flags,Ambient pressure (hPa),Sample flow (lpm),Bypass flow (lpm),Sample temperature (°C),Ambient temperature (°C),ASC tube jacket temperature (°C),LED temperature (°C),Box temperature (°C),Sample RH (%),Span deviation,Mass concentration (μg/m³),Mass concentration (μg/m³),Mass concentration (μg/m³)
DateTimeUTC,F1_M11,P_M11,Q1_M11,Q2_M11,T1_M11,T2_M11,T3_M11,T4_M11,T5_M11,U1_M11,ZSPAN_M11,X0_M11,X2_M11,X1_M11
2023-01-23 13:00:00,,0826.9,5.02,0.00,22.5,20.9,00.0,31.3,24.3,12.8,0000.0,0013.04,0009.08,0008.78
2023-01-23 13:01:00,,0827.0,5.01,0.00,22.5,21.3,00.0,31.3,24.3,12.8,0000.0,0012.97,0009.01,0008.70
2023-01-23 13:02:00,,0827.0,4.99,0.00,22.6,22.2,00.0,31.3,24.5,12.8,0000.0,0012.73,0008.82,0008.54
2023-01-23 13:03:00,,0827.0,4.99,0.00,22.7,22.9,00.0,31.3,24.7,12.7,0001.2,0012.72,0008.65,0008.38
2023-01-23 13:04:00,,0827.0,4.98,0.00,22.8,22.9,00.0,31.4,24.8,12.7,0001.6,0013.03,0008.48,0008.21
2023-01-23 13:05:00,,0827.0,5.00,0.00,22.8,22.5,00.0,31.4,24.8,12.7,0001.4,0013.71,0008.30,0007.99
2023-01-23 13:06:00,,0826.9,5.00,0.00,22.8,22.2,00.0,31.4,24.7,12.7,0000.7,0013.46,0008.10,0007.80
2023-01-23 13:07:00,,0827.1,5.01,0.00,22.8,22.0,00.0,31.4,24.7,12.8,0000.0,0013.28,0007.99,0007.70
2023-01-23 13:08:00,,0827.0,5.00,0.00,22.8,21.8,00.0,31.5,24.6,12.8,0000.0,0013.24,0007.94,0007.65
2023-01-23 13:09:00,,0827.0,5.01,0.00,22.8,21.7,00.0,31.5,24.6,12.8,-000.1,0013.17,0007.87,0007.60
2023-01-23 13:10:00,,0827.0,4.99,0.00,22.8,21.6,00.0,31.5,24.6,12.8,-000.2,0012.69,0007.78,0007.49
2023-01-23 13:11:00,,0827.0,5.00,0.00,22.8,21.6,00.0,31.5,24.6,12.8,-000.2,0012.58,0007.68,0007.37
2023-01-23 13:12:00,,0827.1,5.00,0.00,22.8,21.6,00.0,31.5,24.6,12.9,-000.1,0012.46,0007.57,0007.24
2023-01-23 13:13:00,,0827.3,5.00,0.00,22.8,21.6,00.0,31.5,24.6,12.9,-000.3,0012.45,0007.49,0007.18
2023-01-23 13:14:00,,0827.0,5.00,0.00,22.8,21.6,00.0,31.5,24.6,12.9,-000.2,0012.42,0007.48,0007.14
2023-01-23 13:15:00,,0827.1,5.01,0.00,22.8,21.5,00.0,31.5,24.6,12.9,-000.5,0011.75,0007.42,0007.07
2023-01-23 13:16:00,,0827.2,5.00,0.00,22.8,21.5,00.0,31.5,24.6,12.9,-000.1,0010.88,0007.36,0007.02
2023-01-23 13:17:00,,0827.2,5.00,0.00,22.8,21.4,00.0,31.5,24.5,12.9,-000.9,0010.73,0007.33,0007.00
2023-01-23 13:18:00,,0827.2,4.99,0.00,22.8,21.3,00.0,31.5,24.5,13.0,-001.2,0010.83,0007.29,0006.95
2023-01-23 13:19:00,,0827.2,5.00,0.00,22.7,21.3,00.0,31.5,24.5,13.1,-001.1,0010.91,0007.29,0006.93
2023-01-23 13:20:00,,0827.2,4.99,0.00,22.7,21.3,00.0,31.5,24.5,13.2,-001.1,0010.97,0007.31,0006.93
2023-01-23 13:21:00,,0827.2,5.00,0.00,22.7,21.3,00.0,31.5,24.5,13.3,-001.1,0010.95,0007.31,0006.94
2023-01-23 13:22:00,,0827.2,5.00,0.00,22.7,21.2,00.0,31.5,24.5,13.3,-001.2,0011.02,0007.32,0006.95
2023-01-23 13:23:00,,0827.2,4.98,0.00,22.7,21.2,00.0,31.5,24.5,13.4,-001.0,0011.04,0007.32,0006.95
2023-01-23 13:24:00,,0827.2,4.99,0.00,22.7,21.2,00.0,31.5,24.5,13.4,-001.3,0010.94,0007.31,0006.94
2023-01-23 13:25:00,,0827.2,5.00,0.00,22.7,21.2,00.0,31.5,24.5,13.4,-001.6,0010.87,0007.30,0006.95
2023-01-23 13:26:00,,0827.2,4.99,0.00,22.7,21.2,00.0,31.5,24.4,13.4,-002.3,0011.16,0007.34,0006.97
2023-01-23 13:27:00,,0827.2,4.99,0.00,22.7,21.1,00.0,31.5,24.4,13.5,-002.2,0011.21,0007.36,0006.97
2023-01-23 13:28:00,,0827.2,4.99,0.00,22.7,21.1,00.0,31.5,24.4,13.5,-001.8,0011.23,0007.36,0006.99
2023-01-23 13:29:00,,0827.2,5.01,0.00,22.6,21.1,00.0,31.4,24.4,13.5,-001.4,0011.11,0007.37,0007.01
2023-01-23 13:30:00,,0827.2,5.02,0.00,22.6,21.1,00.0,31.4,24.4,13.5,-000.6,0011.06,0007.37,0007.01
2023-01-23 13:31:00,,0827.2,4.99,0.00,22.6,21.0,00.0,31.4,24.4,13.6,-000.4,0010.96,0007.34,0007.01
2023-01-23 13:32:00,,0827.2,5.00,0.00,22.6,21.0,00.0,31.4,24.4,13.6,-000.3,0010.84,0007.30,0007.00
2023-01-23 13:33:00,,0827.3,4.99,0.00,22.6,21.0,00.0,31.4,24.3,13.6,0000.6,0010.71,0007.27,0006.98
2023-01-23 13:34:00,,0827.2,5.00,0.00,22.6,21.0,00.0,31.4,24.3,13.7,0000.4,0010.70,0007.26,0006.97
2023-01-23 13:35:00,,0827.3,5.00,0.00,22.6,20.9,00.0,31.4,24.3,13.7,0000.1,0010.75,0007.28,0006.97
2023-01-23 13:36:00,,0827.4,4.98,0.00,22.5,21.0,00.0,31.4,24.3,13.7,-000.0,0010.62,0007.25,0006.96
2023-01-23 13:37:00,,0827.3,4.99,0.00,22.5,21.1,00.0,31.3,24.3,13.8,0000.6,0010.35,0007.24,0006.96
2023-01-23 13:38:00,,0827.2,5.01,0.00,22.6,21.9,00.0,31.3,24.5,13.7,0000.6,0010.37,0007.25,0006.97
2023-01-23 13:39:00,,0827.3,5.00,0.00,22.7,22.8,00.0,31.3,24.7,13.7,-000.1,0010.36,0007.25,0006.98
2023-01-23 13:40:00,,0827.2,5.00,0.00,22.8,22.9,00.0,31.4,24.8,13.7,-000.4,0010.38,0007.25,0006.99
2023-01-23 13:41:00,,0827.2,4.99,0.00,22.8,22.6,00.0,31.4,24.8,13.6,-001.1,0011.34,0007.27,0007.01
2023-01-23 13:42:00,,0827.3,5.00,0.00,22.8,22.3,00.0,31.5,24.8,13.6,-001.1,0011.59,0007.31,0007.02
2023-01-23 13:43:00,,0827.3,4.99,0.00,22.8,22.0,00.0,31.5,24.7,13.7,-001.3,0011.92,0007.35,0007.04
2023-01-23 13:44:00,,0827.3,4.99,0.00,22.8,21.8,00.0,31.5,24.7,13.7,-001.7,0011.93,0007.38,0007.05
2023-01-23 13:45:00,,0827.3,4.99,0.00,22.8,21.7,00.0,31.5,24.6,13.7,-001.8,0011.91,0007.39,0007.06
2023-01-23 13:46:00,,0827.3,5.01,0.00,22.8,21.7,00.0,31.5,24.6,13.7,-001.8,0011.90,0007.40,0007.07
2023-01-23 13:47:00,,0827.3,5.02,0.00,22.8,21.6,00.0,31.5,24.6,13.7,-001.8,0011.93,0007.43,0007.10
2023-01-23 13:48:00,,0827.4,5.00,0.00,22.8,21.6,00.0,31.5,24.6,13.7,-001.9,0011.96,0007.45,0007.12
2023-01-23 13:49:00,,0827.4,5.00,0.00,22.8,21.5,00.0,31.5,24.6,13.8,-002.0,0011.93,0007.44,0007.13
2023-01-23 13:50:00,,0827.4,5.00,0.00,22.8,21.4,00.0,31.5,24.6,13.8,-001.8,0011.98,0007.47,0007.13
2023-01-23 13:51:00,,0827.4,5.00,0.00,22.8,21.4,00.0,31.5,24.6,13.8,-001.7,0011.96,0007.48,0007.14
2023-01-23 13:52:00,,0827.4,4.99,0.00,22.8,21.4,00.0,31.5,24.6,13.8,-001.8,0011.13,0007.47,0007.13
2023-01-23 13:53:00,,0827.4,5.00,0.00,22.8,21.3,00.0,31.5,24.6,13.8,-001.7,0010.76,0007.43,0007.13
2023-01-23 13:54:00,,0827.4,4.99,0.00,22.8,21.3,00.0,31.5,24.5,13.9,-001.4,0010.46,0007.43,0007.12
2023-01-23 13:55:00,,0827.4,4.99,0.00,22.7,21.3,00.0,31.5,24.5,13.9,-001.4,0010.49,0007.43,0007.12
2023-01-23 13:56:00,,0827.3,4.99,0.00,22.7,21.3,00.0,31.5,24.5,13.9,-001.1,0010.48,0007.42,0007.12
2023-01-23 13:57:00,,0827.3,5.01,0.00,22.7,21.3,00.0,31.5,24.5,14.0,-000.8,0010.46,0007.42,0007.13
2023-01-23 13:58:00,,0827.3,4.99,0.00,22.7,21.3,00.0,31.5,24.5,14.0,-000.4,0010.42,0007.41,0007.12
2023-01-23 13:59:00,,0827.3,5.00,0.00,22.7,21.2,00.0,31.5,24.5,14.1,-000.5,0010.42,0007.41,0007.12
